EHI
32 35 39 42 50 59 63 65 63 61 58 53 48 48 47 42 41 42 45 50 51 47 42 44 50 53 45 32 26 24 18 12 10 6 2 1 1 2 3 3 2 2 2
32 34 37 39 45 53 58 60 58 55 52 48 43 41 39 37 34 33 36 41 43 41 38 39 43 44 38 30 27 25 18 11 8 6 3 1 1 2 3 3 1 1 1
30 30 33 36 39 45 50 52 51 50 46 41 36 31 28 26 22 20 22 25 28 29 30 29 30 29 26 23 21 19 15 9 6 5 3 1 0 1 1 1 0 0 0
25 26 29 33 36 40 44 46 47 46 43 39 34 26 21 17 13 12 13 13 15 17 19 18 17 17 16 13 11 11 10 7 5 4 3 1 0 0 0 0 0 0 0
23 25 28 31 33 36 40 41 41 40 40 40 36 27 18 13 9 7 6 7 8 9 11 11 10 10 10 8 6 7 7 6 4 3 2 1 0 0 0 0 0 0 0
22 25 29 31 32 34 37 37 35 32 33 36 34 26 16 10 6 4 2 3 6 7 7 7 7 7 7 6 6 6 7 6 4 3 2 1 0 0 0 0 0 0 0
18 21 25 28 29 31 33 33 30 26 25 27 27 21 13 7 4 3 3 4 6 6 6 6 6 6 5 5 5 5 4 3 3 2 2 1 1 0 0 0 0 0 0
14 15 18 20 22 25 27 28 26 22 19 19 19 15 9 4 2 3 4 5 5 4 4 3 3 3 3 2 3 3 1 1 1 1 1 0 0 0 0 0 0 0 0
10 11 12 13 13 15 17 19 18 16 13 12 11 7 4 2 1 1 3 3 2 1 1 1 1 1 1 0 1 1 0 0 0 0 0 0 0 0 0 0 0 0 0
6 7 8 6 6 7 9 10 11 9 7 4 3 2 1 0 0 0 1 1 0 0 0 0 0 0 0 0 0 0 0 0 0 0 0 0 0 0 0 0 0 0 0
3 3 3 2 1 2 4 5 6 6 4 1 0 0 0 0 0 0 0 0 0 0 0 0 0 0 0 0 0 0 0 0 0 0 0 0 0 0 0 0 0 0 0
1 1 1 0 0 0 1 3 3 3 2 1 0 0 0 0 0 0 0 0 0 0 0 0 0 0 0 0 0 0 0 0 0 0 0 0 0 0 0 0 0 0 0
0 0 0 0 0 0 0 1 1 1 1 0 0 0 0 0 0 0 0 0 0 0 0 0 0 0 0 0 0 0 0 0 0 0 0 0 0 0 0 0 0 0 0
0 0 0 0 0 0 0 0 0 0 0 0 0 0 0 0 0 0 0 0 0 0 0 0 0 0 0 0 0 0 0 0 0 0 0 0 0 0 0 0 0 0 0
0 0 0 0 0 0 0 0 0 0 0 0 0 0 0 0 0 0 0 0 0 0 0 0 0 0 0 0 0 0 0 0 0 0 0 0 0 0 0 0 0 0 0
0 0 0 0 0 0 0 0 0 0 0 0 0 0 0 0 0 0 0 0 0 0 0 0 0 0 0 0 0 0 0 0 0 0 0 0 0 0 0 0 0 0 0
0 0 0 0 0 0 0 0 0 0 0 0 0 0 0 0 0 0 0 0 0 0 0 0 0 0 0 0 0 0 0 0 0 0 0 0 0 0 0 0 0 0 0
0 0 0 0 0 0 0 0 0 0 0 0 0 0 0 0 0 0 0 0 0 0 0 0 0 0 0 0 0 0 0 0 0 0 0 0 0 0 0 0 0 0 0
0 0 0 0 0 0 0 0 0 0 0 0 0 0 0 0 0 0 0 0 0 0 0 0 0 0 0 0 0 0 0 0 0 0 0 0 0 0 0 0 0 0 0
0 0 0 0 0 0 0 0 0 0 0 0 0 0 0 0 0 0 0 0 0 0 0 0 0 0 0 0 0 0 0 0 0 0 0 0 0 0 0 0 0 0 0
0 0 0 0 0 0 0 0 0 0 0 0 0 0 0 0 0 0 0 0 0 0 0 0 0 0 0 0 0 0 0 0 0 0 0 0 0 0 0 0 0 0 0
0 0 0 0 0 0 0 0 0 0 0 0 0 0 0 0 0 0 0 0 0 0 0 0 0 0 0 0 0 0 0 0 0 0 0 0 0 0 0 0 0 0 0
0 0 0 0 0 0 0 0 0 0 0 0 0 0 0 0 0 0 0 0 0 0 0 0 0 0 0 0 0 0 0 0 0 0 0 0 0 0 0 0 0 0 0
0 0 0 0 0 0 0 0 0 0 0 0 0 0 0 0 0 0 0 0 0 0 0 0 0 0 0 0 0 0 0 0 0 0 0 0 0 0 0 0 0 0 0
0 0 0 0 0 0 0 0 0 0 0 0 0 0 0 0 0 0 0 0 0 0 0 0 0 0 0 0 0 0 0 0 0 0 0 0 0 0 0 0 0 0 0
0 0 0 0 0 0 0 0 0 0 0 0 0 0 0 0 0 0 0 0 0 0 0 0 0 0 0 0 0 0 0 0 0 0 0 0 0 0 0 0 0 0 0
Wind_Speed
4 6 7 7 6 6 5 3 4 4 3 2 3 3 2 3 3 2 3 2 2 2 2 2 3 3 2 3 3 2 3 3 3 3 3 4 5 5 4 5 5 6 7
5 7 8 6 5 5 5 4 4 4 4 2 1 2 3 3 3 3 3 3 2 2 3 2 2 2 2 2 2 2 2 2 2 2 3 3 2 4 5 4 5 5 5
7 8 7 6 5 5 3 3 3 4 5 5 2 3 3 3 2 3 3 4 4 4 4 4 3 2 2 2 2 2 2 2 1 1 1 2 3 3 3 5 5 5 5
7 7 7 7 7 5 4 4 3 3 4 5 5 6 4 4 3 3 4 6 7 6 6 5 5 4 4 3 3 3 2 2 2 2 2 2 3 4 4 3 3 4 5
9 8 7 6 7 6 6 5 5 4 4 4 6 6 7 6 5 5 7 6 7 8 7 7 7 6 6 6 6 6 5 4 3 2 2 2 2 3 3 4 3 3 3
8 8 8 8 8 7 6 6 6 5 5 5 6 7 10 10 9 7 7 6 5 6 8 8 7 7 6 7 7 7 8 6 6 5 4 3 3 2 2 3 4 4 2
9 9 10 10 9 9 7 7 7 7 6 6 7 9 9 10 10 8 7 6 6 6 7 7 8 7 8 8 8 8 8 8 7 6 4 4 4 2 3 3 3 3 3
9 10 10 10 9 9 9 8 8 7 8 9 9 10 9 7 7 8 8 7 6 7 8 8 9 9 8 8 8 8 7 7 7 7 6 4 4 4 3 2 2 2 3
10 10 10 10 10 10 10 9 9 9 10 10 11 11 10 10 10 10 9 7 7 8 9 9 9 9 8 8 8 7 7 6 6 6 6 5 4 4 4 3 2 1 3
10 10 10 10 10 10 10 10 10 10 11 11 11 11 12 11 11 11 11 10 10 9 9 9 9 8 8 7 8 7 7 8 7 6 7 6 4 4 3 3 3 4 3
9 10 10 10 10 11 11 11 11 11 11 12 12 13 12 12 12 11 10 9 9 9 8 8 8 8 8 7 7 7 7 7 7 6 7 6 6 5 4 4 4 4 4
10 10 10 10 10 11 11 11 11 11 12 12 13 13 12 12 11 10 9 9 9 8 8 8 8 8 7 6 7 8 7 7 7 6 6 6 6 6 5 4 4 3 3
11 11 11 10 10 10 10 11 11 11 12 12 13 12 11 11 10 9 9 9 9 8 8 7 8 8 7 7 7 7 7 6 6 6 6 7 7 6 5 5 5 4 4
10 11 10 10 9 9 10 10 10 10 12 12 12 11 10 9 9 9 8 8 8 7 7 6 6 6 7 7 6 7 6 6 7 7 7 7 7 6 6 5 5 5 4
10 11 10 9 9 9 9 10 10 10 10 12 12 11 9 9 9 8 7 7 6 7 6 6 7 8 8 8 7 4 7 5 6 6 6 6 6 6 5 5 4 5 4
10 11 11 10 10 9 9 10 10 9 9 11 11 10 9 8 8 7 6 6 6 5 6 7 9 9 8 10 13 9 5 5 5 4 4 5 4 3 2 2 2 3 4
11 11 10 10 9 9 9 9 9 8 9 10 10 9 9 8 7 7 6 6 5 6 8 8 8 8 8 11 12 12 4 4 4 4 3 5 8 7 5 3 2 2 3
11 11 10 10 10 9 9 9 9 9 9 9 9 8 8 8 7 6 6 6 5 6 6 7 7 6 7 10 11 12 3 3 4 4 6 6 7 8 7 5 3 2 1
11 10 10 10 10 9 9 8 8 8 8 8 8 7 7 7 6 6 6 5 5 5 5 6 7 6 6 8 10 10 3 2 3 6 7 6 6 8 10 6 5 5 4
10 10 10 10 9 8 7 8 8 7 8 7 7 6 6 6 6 6 5 4 4 5 6 6 6 7 6 6 8 9 2 2 3 5 6 9 6 6 8 5 5 5 5
12 11 10 9 8 8 7 7 7 7 7 7 7 7 6 6 6 5 4 4 4 5 6 6 6 6 5 4 7 9 5 4 3 3 4 3 4 5 6 5 3 3 4
12 11 10 9 7 7 7 7 7 6 6 6 6 5 4 5 6 4 3 3 4 5 5 5 6 5 4 4 4 5 6 5 4 4 3 2 2 4 6 5 6 9 8
11 10 11 10 8 7 7 8 6 6 6 6 5 5 5 5 4 4 3 3 2 3 3 4 4 5 4 3 2 3 5 6 4 3 2 2 3 5 5 6 9 8 4
11 10 11 11 8 7 7 7 7 6 6 6 5 5 4 4 4 3 3 4 4 3 3 3 4 5 4 4 3 2 1 1 1 2 3 5 7 7 7 6 5 4 1
10 9 9 9 9 8 8 8 7 5 5 5 4 4 5 6 6 7 7 7 7 6 5 5 5 5 5 3 4 4 5 5 5 6 3 3 2 2 1 1 1 1 1
10 9 9 10 9 8 8 7 6 5 5 4 4 4 4 4 5 7 7 11 8 9 11 10 7 6 6 3 3 5 6 6 8 5 3 2 2 3 3 3 3 2 3
Wind_Direction
65 68 69 67 70 89 102 115 133 130 134 153 161 160 135 100 90 85 97 142 167 162 157 163 154 153 151 155 148 138 136 131 127 116 99 75 70 70 65 65 72 75 74
56 63 61 55 65 89 103 115 118 122 117 118 151 138 123 106 101 88 77 76 94 118 142 127 128 153 145 142 150 145 142 129 129 136 143 139 104 60 56 64 69 69 70
57 50 46 54 62 66 88 108 105 122 133 133 134 118 102 95 90 80 68 58 65 69 76 92 99 100 119 126 121 109 124 145 128 90 132 149 149 117 68 60 63 65 64
61 48 39 38 45 56 66 72 96 107 125 138 144 142 135 125 100 86 74 61 59 61 65 71 76 76 76 75 77 72 87 117 135 111 74 85 109 131 127 99 85 82 73
60 51 42 35 44 45 57 57 66 69 86 120 138 138 124 111 102 96 85 73 63 60 62 65 67 70 69 67 64 64 65 62 65 76 85 84 81 89 126 135 135 103 85
67 58 53 43 44 40 49 52 67 64 69 86 109 120 120 117 113 105 96 82 72 67 64 66 68 69 71 69 68 70 70 68 64 60 59 64 70 76 101 126 140 128 116
63 55 47 43 39 36 43 48 64 70 71 85 93 99 106 110 109 106 97 91 83 75 70 73 70 69 70 70 69 69 66 65 64 59 55 56 53 49 74 100 123 133 135
68 58 50 45 39 35 40 50 61 70 73 81 86 90 95 95 94 92 93 90 86 82 78 77 77 76 75 75 73 72 68 65 66 64 56 57 46 43 55 74 102 131 134
75 66 58 50 44 40 41 51 65 70 75 79 87 86 87 91 92 89 87 85 84 84 79 79 78 77 76 75 76 73 68 63 62 60 57 60 51 43 40 50 62 82 117
77 68 62 57 52 49 48 53 65 71 77 80 83 86 85 86 86 86 85 86 86 84 84 81 79 78 76 76 78 77 73 73 67 59 47 43 40 44 41 38 39 41 66
79 72 67 65 60 57 57 60 65 70 74 77 81 84 84 86 86 87 88 88 87 85 86 87 85 80 76 76 80 82 76 76 72 73 69 58 40 32 31 36 47 43 51
86 81 75 70 68 65 63 66 72 75 77 79 81 81 81 83 87 89 90 90 89 85 85 85 86 85 82 77 78 84 80 79 75 69 65 61 58 47 31 30 47 49 49
91 86 81 74 72 73 74 74 77 81 83 82 82 83 82 84 87 87 87 86 86 83 81 81 82 83 80 77 76 78 78 75 73 69 65 58 51 42 29 35 31 29 36
94 90 86 81 78 78 82 83 82 84 88 88 87 85 84 84 85 85 84 83 84 84 83 83 85 86 81 75 78 84 80 77 73 68 63 57 51 36 12 40 28 23 8
104 100 96 92 88 85 86 88 89 89 93 93 91 88 87 86 86 83 81 81 84 88 84 82 77 73 63 45 39 81 91 85 87 88 90 85 78 61 38 42 25 19 12
114 111 108 103 99 97 95 94 93 95 97 97 97 98 96 93 91 90 87 85 84 85 83 76 72 68 62 41 34 36 68 78 79 84 101 121 103 89 67 36 24 29 29
119 114 111 107 102 100 102 101 101 101 99 98 99 101 101 99 98 102 98 94 92 88 85 84 84 78 53 37 30 20 21 80 75 63 51 71 68 44 20 351 277 242 234
123 119 116 112 108 108 107 107 108 105 102 101 101 104 107 106 106 103 98 94 91 91 93 94 94 87 57 34 24 2 10 88 86 73 63 67 60 32 8 346 7 48 154
123 118 116 116 114 113 113 113 111 108 107 107 108 109 110 110 110 105 102 100 101 103 105 107 105 96 72 38 26 5 347 94 97 79 57 60 67 30 11 1 14 27 22
121 122 123 122 120 122 125 122 118 117 116 118 118 114 111 109 105 104 108 111 112 113 109 106 102 98 85 46 28 3 350 88 95 100 89 67 57 32 20 8 9 18 360
129 131 130 126 128 130 127 119 117 116 116 116 113 112 113 114 107 107 109 113 111 106 105 107 103 97 96 75 40 27 24 22 70 102 101 81 46 24 5 348 351 352 320
137 137 132 129 133 134 128 118 117 117 114 113 115 118 121 117 111 108 104 106 116 120 120 123 120 115 110 80 59 37 36 18 40 64 76 93 15 342 326 323 322 324 319
140 139 136 134 136 135 131 124 122 120 117 112 110 104 99 93 106 116 119 122 123 125 130 133 130 125 118 100 50 9 11 22 29 36 11 308 281 300 284 264 290 308 309
139 141 139 138 139 141 134 126 123 121 121 117 113 111 108 99 82 68 64 57 44 51 86 101 107 109 93 71 41 22 39 357 14 327 273 266 267 269 283 287 259 252 283
140 141 140 137 135 134 131 129 127 124 123 120 111 106 99 96 84 69 50 64 51 43 48 52 62 82 84 55 31 23 23 11 11 331 296 259 267 257 263 308 344 327 21
140 141 139 135 134 134 131 130 131 131 129 123 121 119 119 120 120 114 90 60 78 74 68 63 69 78 90 104 43 20 358 350 351 339 320 346 1 5 7 357 358 21 38